Location: Goettingen
(51.5300°N, 9.9433°E)
Time: 05:21:07
(UTC+02:00)

ISS - Pass Details

Date: 25 May 2018
Orbit: 402 x 407 km, 51.6° (Epoch: 25 May)

Event Time Altitude Azimuth Distance (km) Brightness Sun altitude
Rises 00:27:28 0° 274° (W) 2,320 0.2 -16.8°
Reaches altitude 10° 00:29:33 10° 275° (W) 1,459 -0.8 -16.8°
Maximum altitude 00:32:49 88° 356° (N) 408 -3.9 -16.9°
Enters shadow 00:35:43 13° 95° (E) 1,302 -1.4 -17.0°
